Weather in Kalnibolotskaya

Russia / Krasnodar Krai     46°00′16″N   40°26′19″E
temp.,
°C
wind,
m/s
gust,
m/s
humid.,
%
clouds,
%
prec.,
mm/h
press.,
hPa
HPBL,
m
2 december, thu
thu200:00+5w6127879 0.6 10081179
03:00+4w612785 0.6 1010750
06:00+3wsw4108137 0.0 1013382
09:00+3wsw388142 0.0 1016484
12:00+6wsw69615 0.0 10171184
15:00+7wsw5106148 0.0 10181145
18:00+6s34745 0.0 101861
21:00+6ssw4128229 0.0 1019351
3 december, fri
fri300:00+5s511855 0.0 1019282
03:00+4s487986 0.0 1019144
06:00+4sse3675100 0.0 1019101
09:00+5sse3571100 0.0 101997
12:00+9sse345249 0.0 1018232
15:00+10se24528 0.0 1017207
18:00+7sse34625 0.0 101856
21:00+6sse476426 0.0 101896
4 december, sat
sat400:00+6s496289 0.0 1018124
03:00+7s41259100 0.0 1017263
06:00+6s4116362 0.0 1016199
09:00+7s51357100 0.0 1016278
12:00+12s41143100 0.0 1015372
15:00+12ssw2448100 0.0 101494
18:00+10s1248100 0.0 101411
21:00+9sse2252100 0.0 101410
5 december, sun
sun500:00+9ssw1153100 0.0 101310
03:00+9sw2257100 0.0 101311
06:00+8sw2366100 0.0 101434
09:00+8s3481100 0.6 1014107
12:00+11s3563100 0.1 1014230
15:00+11sse246091 0.1 1014163
18:00+9se226591 0.0 101618
21:00+8se226268 0.0 101618
6 december, mon
mon600:00+7sse226394 0.0 101710
03:00+8ssw2257100 0.0 101818
06:00+8s2258100 0.0 101824
09:00+9s336395 0.1 102059
12:00+11s235580 0.0 1020150
15:00+11sse2255100 0.0 102065
18:00+10se3559100 0.0 102172
21:00+9se356072 0.0 102184